Location: Houhaj�rvi
(61.2833°N, 23.0000°E)
Time: 18:17:39
(UTC+00:00)

Cosmos 2278 Rocket - Pass Details

Date: 27 February 2020
Orbit: 840 x 846 km, 71.0° (Epoch: 01 April)

Event Time Altitude Azimuth Distance (km) Brightness Sun altitude
Rises 18:06:20 0° 277° (W) 3,404 7.0 -17.5°
Reaches altitude 10° 18:09:02 10° 287° (WNW) 2,470 5.9 -17.8°
Maximum altitude 18:14:07 33° 350° (N) 1,406 3.6 -18.4°
Enters shadow 18:18:37 13° 51° (NE) 2,290 4.1 -18.9°
